W0RMT-13 Weather Reports


Display with metric or nautical units.
time (UTC)temp
F
wind
direction
speed
MPH
gust
MPH
rain 1hr
in
rain 24hr
in
rain mn
in
humidity
%
barometer
mb
20230131210930 31 136 0.0 0.0 0.00 0.00 0.00 45 1014.7
20230131210313 30 170 0.0 2.0 0.00 0.00 0.00 46 1014.7
20230131210126 30 143 0.0 2.0 0.00 0.00 0.00 45 1014.7
20230131205748 29 125 0.0 0.0 0.00 0.00 0.00 49 1014.7
20230131205224 29 99 0.0 2.0 0.00 0.00 0.00 50 1014.7
20230131205041 29 106 0.0 2.0 0.00 0.00 0.00 49 1014.7
20230131204556 29 114 1.0 2.0 0.00 0.00 0.00 47 1014.7
20230131204046 29 168 0.0 2.0 0.00 0.00 0.00 50 1015.0
20230131203918 29 183 0.0 2.0 0.00 0.00 0.00 50 1015.0
20230131203425 29 53 2.0 2.0 0.00 0.00 0.00 50 1015.0
20230131203132 29 166 0.0 0.0 0.00 0.00 0.00 49 1015.0
20230131203005 29 166 0.0 0.0 0.00 0.00 0.00 49 1015.0
20230131202259 28 287 0.0 0.0 0.00 0.00 0.00 49 1015.0
20230131201747 28 113 0.0 0.0 0.00 0.00 0.00 49 1015.0
20230131201355 27 183 0.0 2.0 0.00 0.00 0.00 49 1015.4
20230131200725 27 190 0.0 2.0 0.00 0.00 0.00 49 1015.4
20230131200523 27 117 0.0 2.0 0.00 0.00 0.00 49 1015.4
20230131195833 26 166 0.0 0.0 0.00 0.00 0.00 48 1015.4
20230131195532 26 188 0.0 0.0 0.00 0.00 0.00 47 1015.4
20230131195156 26 176 0.0 0.0 0.00 0.00 0.00 47 1015.4
20230131194522 26 146 0.0 2.0 0.00 0.00 0.00 50 1015.4
20230131193935 26 161 0.0 2.0 0.00 0.00 0.00 51 1015.4
20230131193344 25 184 0.0 0.0 0.00 0.00 0.00 49 1015.8
20230131192722 25 182 0.0 0.0 0.00 0.00 0.00 47 1016.2
20230131192315 24 146 0.0 0.0 0.00 0.00 0.00 49 1016.2
20230131191959 24 166 0.0 0.0 0.00 0.00 0.00 50 1016.2
20230131191336 24 168 0.0 0.0 0.00 0.00 0.00 51 1016.2
20230131191205 23 110 0.0 0.0 0.00 0.00 0.00 51 1016.2
20230131190827 23 160 0.0 0.0 0.00 0.00 0.00 49 1016.2
20230131190152 23 152 0.0 2.0 0.00 0.00 0.00 51 1016.7
20230131185618 22 188 0.0 2.0 0.00 0.00 0.00 51 1016.7
20230131185112 22 170 0.0 0.0 0.00 0.00 0.00 52 1016.7
20230131184508 21 96 0.0 0.0 0.00 0.00 0.00 51 1016.7
20230131184227 21 180 0.0 0.0 0.00 0.00 0.00 53 1016.7
20230131184100 21 180 0.0 0.0 0.00 0.00 0.00 53 1016.7
20230131183334 20 161 0.0 0.0 0.00 0.00 0.00 54 1016.7
20230131182825 20 152 0.0 0.0 0.00 0.00 0.00 54 1017.0
20230131182204 20 130 0.0 2.0 0.00 0.00 0.00 55 1017.0
20230131181644 19 90 1.0 2.0 0.00 0.00 0.00 53 1017.0
20230131181522 19 163 0.0 2.0 0.00 0.00 0.00 54 1017.0
20230131180758 19 78 0.0 2.0 0.00 0.00 0.00 55 1017.4
20230131180622 19 180 0.0 2.0 0.00 0.00 0.00 55 1017.4
20230131180124 19 122 1.0 2.0 0.00 0.00 0.00 57 1017.4
20230131175727 18 121 0.0 2.0 0.00 0.00 0.00 53 1017.4
20230131175601 18 121 0.0 2.0 0.00 0.00 0.00 53 1017.4
20230131174821 17 266 0.0 0.0 0.00 0.00 0.00 55 1017.4
20230131174402 17 202 0.0 0.0 0.00 0.00 0.00 54 1017.4
20230131174215 17 186 0.0 0.0 0.00 0.00 0.00 54 1017.4
20230131173644 16 173 0.0 2.0 0.00 0.00 0.00 57 1017.4
20230131173318 15 109 0.0 2.0 0.00 0.00 0.00 56 1017.8
20230131173021 15 172 0.0 2.0 0.00 0.00 0.00 57 1017.8
20230131172754 14 158 0.0 2.0 0.00 0.00 0.00 60 1017.8
20230131172518 15 192 0.0 2.0 0.00 0.00 0.00 59 1017.8
20230131172216 14 84 0.0 2.0 0.00 0.00 0.00 59 1017.8
20230131171359 13 84 0.0 2.0 0.00 0.00 0.00 62 1017.4
20230131171038 13 347 2.0 2.0 0.00 0.00 0.00 64 1017.4
20230131170819 13 293 1.0 2.0 0.00 0.00 0.00 62 1017.4
20230131170549 13 216 0.0 2.0 0.00 0.00 0.00 60 1017.8
20230131170027 12 259 0.0 2.0 0.00 0.00 0.00 62 1017.8
20230131165704 12 270 0.0 2.0 0.00 0.00 0.00 63 1017.8
20230131165155 11 103 0.0 2.0 0.00 0.00 0.00 63 1017.4
20230131165005 11 129 0.0 5.0 0.00 0.00 0.00 66 1017.4
20230131164517 11 280 0.0 5.0 0.00 0.00 0.00 69 1017.4
20230131164205 10 329 2.0 2.0 0.00 0.00 0.00 68 1017.4
20230131164039 10 329 2.0 2.0 0.00 0.00 0.00 68 1017.4
20230131163343 10 143 0.0 2.0 0.00 0.00 0.00 68 1017.4
20230131162834 9 330 1.0 2.0 0.00 0.00 0.00 69 1017.4
20230131162455 8 237 0.0 0.0 0.00 0.00 0.00 69 1017.4
20230131161755 8 268 0.0 0.0 0.00 0.00 0.00 70 1017.4
20230131161607 7 157 0.0 0.0 0.00 0.00 0.00 71 1017.4
20230131161054 7 98 0.0 0.0 0.00 0.00 0.00 71 1017.0
20230131160739 6 222 0.0 2.0 0.00 0.00 0.00 74 1017.0
20230131160555 6 285 0.0 2.0 0.00 0.00 0.00 74 1017.0
20230131160048 6 222 0.0 0.0 0.00 0.00 0.00 76 1017.0
20230131155620 6 230 0.0 0.0 0.00 0.00 0.00 77 1017.0
20230131155433 6 293 0.0 0.0 0.00 0.00 0.00 77 1017.4
20230131154843 6 98 0.0 0.0 0.00 0.00 0.00 77 1017.0
20230131154535 6 224 0.0 2.0 0.00 0.00 0.00 77 1017.0
20230131154234 6 264 0.0 2.0 0.00 0.00 0.00 77 1017.0
20230131153642 5 63 0.0 2.0 0.00 0.00 0.00 77 1017.0
20230131153510 5 73 0.0 2.0 0.00 0.00 0.00 77 1016.7
20230131153043 4 67 0.0 2.0 0.00 0.00 0.00 77 1017.0
20230131152422 4 180 1.0 2.0 0.00 0.00 0.00 77 1016.2
20230131151753 3 195 0.0 2.0 0.00 0.00 0.00 82 1016.2
20230131151243 2 192 0.0 0.0 0.00 0.00 0.00 84 1016.7
20230131150633 2 180 0.0 2.0 0.00 0.00 0.00 84 1016.7
20230131150120 1 144 0.0 2.0 0.00 0.00 0.00 84 1016.7
20230131150029 1 111 0.0 2.0 0.00 0.00 0.00 85 1016.7
20230131145357 1 187 0.0 0.0 0.00 0.00 0.00 86 1016.7
20230131145049 1 184 0.0 0.0 0.00 0.00 0.00 86 1016.7
20230131144811 0 180 0.0 2.0 0.00 0.00 0.00 86 1016.7
20230131144230 0 93 0.0 5.0 0.00 0.00 0.00 85 1016.2
20230131144047 0 89 0.0 5.0 0.00 0.00 0.00 85 1016.2
20230131143612 -1 68 3.0 5.0 0.00 0.00 0.00 87 1016.7
20230131142944 -1 188 0.0 0.0 0.00 0.00 0.00 88 1016.2
20230131142258 -1 195 0.0 0.0 0.00 0.00 0.00 88 1016.2
20230131141939 -1 194 0.0 0.0 0.00 0.00 0.00 88 1016.2
20230131141855 -1 191 0.0 0.0 0.00 0.00 0.00 88 1016.2
20230131141006 -1 200 0.0 0.0 0.00 0.00 0.00 88 1015.8
20230131140819 -1 205 0.0 0.0 0.00 0.00 0.00 89 1015.8
20230131140321 -1 190 0.0 0.0 0.00 0.00 0.00 88 1016.2
20230131135814 -1 195 0.0 0.0 0.00 0.00 0.00 88 1016.7
20230131135641 -1 197 0.0 0.0 0.00 0.00 0.00 88 1016.7
20230131135155 -1 207 0.0 0.0 0.00 0.00 0.00 88 1016.7
20230131134522 -1 176 0.0 0.0 0.00 0.00 0.00 87 1016.7
20230131133903 -1 126 0.0 2.0 0.00 0.00 0.00 87 1016.7
20230131133404 -1 70 1.0 2.0 0.00 0.00 0.00 87 1017.0
20230131132846 0 193 0.0 0.0 0.00 0.00 0.00 86 1016.7
20230131132315 0 205 0.0 0.0 0.00 0.00 0.00 86 1017.4
20230131132042 1 220 0.0 0.0 0.00 0.00 0.00 85 1017.0
20230131131204 1 264 0.0 0.0 0.00 0.00 0.00 84 1017.0
20230131130643 2 299 0.0 2.0 0.00 0.00 0.00 84 1017.0
20230131130026 2 191 0.0 2.0 0.00 0.00 0.00 85 1017.0
20230131125430 2 216 0.0 2.0 0.00 0.00 0.00 86 1017.0
20230131124942 2 158 0.0 0.0 0.00 0.00 0.00 87 1016.2
20230131124812 2 181 0.0 0.0 0.00 0.00 0.00 86 1016.7
20230131124154 3 189 0.0 0.0 0.00 0.00 0.00 86 1016.7
20230131123935 3 185 0.0 0.0 0.00 0.00 0.00 85 1016.7
20230131123630 3 161 0.0 0.0 0.00 0.00 0.00 85 1016.7
20230131123042 4 195 0.0 0.0 0.00 0.00 0.00 84 1016.7
20230131122915 4 112 0.0 0.0 0.00 0.00 0.00 83 1017.0
20230131122418 5 108 0.0 0.0 0.00 0.00 0.00 82 1016.7
20230131122321 5 161 0.0 0.0 0.00 0.00 0.00 82 1016.7
20230131121924 5 161 0.0 0.0 0.00 0.00 0.00 82 1016.7
20230131121249 5 211 0.0 0.0 0.00 0.00 0.00 82 1016.7
20230131121124 5 110 0.0 0.0 0.00 0.00 0.00 81 1016.7
20230131120810 5 137 0.0 0.0 0.00 0.00 0.00 81 1016.7
20230131120022 5 159 0.0 2.0 0.00 0.00 0.00 81 1016.2
20230131115722 5 157 0.0 2.0 0.00 0.00 0.00 81 1016.2
20230131115443 5 180 0.0 5.0 0.00 0.00 0.00 81 1016.2
20230131115052 5 198 3.0 5.0 0.00 0.00 0.00 81 1015.8
20230131114518 5 205 0.0 5.0 0.00 0.00 0.00 81 1016.2
20230131114203 5 234 2.0 2.0 0.00 0.00 0.00 82 1015.8
20230131113652 5 115 0.0 2.0 0.00 0.00 0.00 82 1016.2
20230131113515 5 179 0.0 2.0 0.00 0.00 0.00 81 1016.2
20230131113021 5 191 1.0 2.0 0.00 0.00 0.00 82 1016.2
20230131112413 4 233 1.0 2.0 0.00 0.00 0.00 82 1016.2
20230131111843 3 217 0.0 0.0 0.00 0.00 0.00 83 1016.2
20230131111344 3 200 0.0 2.0 0.00 0.00 0.00 84 1016.2
20230131111221 2 214 0.0 2.0 0.00 0.00 0.00 85 1016.7
20230131110458 2 136 0.0 0.0 0.00 0.00 0.00 88 1016.7
20230131110322 2 190 0.0 0.0 0.00 0.00 0.00 88 1016.7
20230131105914 2 156 0.0 0.0 0.00 0.00 0.00 89 1016.7
20230131105639 1 184 0.0 0.0 0.00 0.00 0.00 89 1017.0
20230131105059 1 190 0.0 0.0 0.00 0.00 0.00 90 1017.0
20230131104803 1 189 0.0 0.0 0.00 0.00 0.00 90 1017.0
20230131104114 1 185 0.0 0.0 0.00 0.00 0.00 89 1017.0
20230131103919 1 185 0.0 0.0 0.00 0.00 0.00 89 1017.0
20230131103448 1 185 0.0 0.0 0.00 0.00 0.00 89 1017.4
20230131102910 1 187 0.0 0.0 0.00 0.00 0.00 89 1017.0
20230131102314 1 179 0.0 0.0 0.00 0.00 0.00 89 1017.4
20230131101807 2 180 0.0 0.0 0.00 0.00 0.00 88 1017.8
20230131101140 2 180 0.0 0.0 0.00 0.00 0.00 88 1017.8
20230131100640 2 180 0.0 0.0 0.00 0.00 0.00 88 1017.8
20230131100033 2 193 0.0 0.0 0.00 0.00 0.00 87 1018.2
20230131095619 2 187 0.0 0.0 0.00 0.00 0.00 87 1018.2
20230131095420 2 185 0.0 0.0 0.00 0.00 0.00 87 1018.2
20230131094843 2 178 0.0 0.0 0.00 0.00 0.00 87 1017.8
20230131094516 2 184 0.0 0.0 0.00 0.00 0.00 87 1017.8
20230131094221 3 186 0.0 0.0 0.00 0.00 0.00 87 1017.8
20230131093900 3 184 0.0 0.0 0.00 0.00 0.00 87 1017.8
20230131093446 3 183 0.0 0.0 0.00 0.00 0.00 87 1017.8
20230131093012 3 183 0.0 0.0 0.00 0.00 0.00 86 1017.8
20230131092334 3 183 0.0 0.0 0.00 0.00 0.00 86 1017.8
20230131091818 4 179 0.0 0.0 0.00 0.00 0.00 85 1018.2
20230131091243 4 185 0.0 0.0 0.00 0.00 0.00 85 1017.8
20230131090846 4 187 0.0 0.0 0.00 0.00 0.00 84 1018.2
20230131090207 4 179 0.0 0.0 0.00 0.00 0.00 83 1018.2
20230131090030 4 179 0.0 0.0 0.00 0.00 0.00 83 1018.2
20230131085442 5 183 0.0 0.0 0.00 0.00 0.00 82 1018.2
20230131085131 5 172 0.0 0.0 0.00 0.00 0.00 82 1018.2
20230131085053 5 145 0.0 0.0 0.00 0.00 0.00 82 1018.7
20230131084047 5 167 0.0 0.0 0.00 0.00 0.00 82 1018.2
20230131083434 5 210 0.0 2.0 0.00 0.00 0.00 82 1018.2
20230131082955 5 160 0.0 0.0 0.00 0.00 0.00 82 1018.2
20230131082806 5 178 0.0 0.0 0.00 0.00 0.00 82 1018.2
20230131082246 5 180 0.0 0.0 0.00 0.00 0.00 83 1018.2
20230131081938 5 190 0.0 0.0 0.00 0.00 0.00 83 1018.2
20230131081624 5 193 0.0 0.0 0.00 0.00 0.00 83 1018.2
20230131081114 5 139 0.0 0.0 0.00 0.00 0.00 83 1018.7
20230131080933 5 184 0.0 0.0 0.00 0.00 0.00 83 1018.2
20230131080834 5 193 0.0 2.0 0.00 0.00 0.00 84 1018.2
20230131075915 5 196 0.0 0.0 0.00 0.00 0.00 84 1018.7
20230131075237 5 172 0.0 0.0 0.00 0.00 0.00 84 1018.7
20230131074734 5 167 0.0 0.0 0.00 0.00 0.00 84 1018.7
20230131074115 5 186 0.0 0.0 0.00 0.00 0.00 84 1018.7
20230131073842 5 173 0.0 0.0 0.00 0.00 0.00 84 1018.7
20230131073715 5 173 0.0 0.0 0.00 0.00 0.00 84 1018.7
20230131072909 4 170 0.0 0.0 0.00 0.00 0.00 84 1018.7
20230131072816 4 163 0.0 5.0 0.00 0.00 0.00 85 1018.7
20230131072443 4 158 0.0 0.0 0.00 0.00 0.00 85 1018.7
20230131071811 4 128 0.0 5.0 0.00 0.00 0.00 86 1018.7
20230131071334 3 136 0.0 0.0 0.00 0.00 0.00 87 1018.7
20230131071204 3 170 0.0 0.0 0.00 0.00 0.00 87 1019.0
20230131070656 3 176 0.0 0.0 0.00 0.00 0.00 87 1018.7
20230131070331 3 175 0.0 0.0 0.00 0.00 0.00 87 1019.0
20230131070021 3 175 0.0 0.0 0.00 0.00 0.00 87 1018.7
20230131065403 3 173 0.0 0.0 0.00 0.00 0.00 87 1019.0
20230131065234 3 173 0.0 0.0 0.00 0.00 0.00 87 1019.0
20230131064843 3 173 0.0 0.0 0.00 0.00 0.00 87 1019.0
20230131064221 3 173 0.0 0.0 0.00 0.00 0.00 87 1019.0
20230131064101 3 173 0.0 0.0 0.00 0.00 0.00 87 1019.4
20230131063603 3 173 0.0 0.0 0.00 0.00 0.00 86 1019.4
20230131063013 3 171 0.0 0.0 0.00 0.00 0.00 86 1019.4
20230131062331 3 169 0.0 0.0 0.00 0.00 0.00 86 1019.4
20230131062006 3 165 0.0 0.0 0.00 0.00 0.00 86 1019.4
20230131061815 3 163 0.0 0.0 0.00 0.00 0.00 86 1019.4
20230131061159 3 160 0.0 0.0 0.00 0.00 0.00 86 1019.4
20230131060826 3 172 0.0 0.0 0.00 0.00 0.00 86 1019.8
20230131060648 3 169 0.0 0.0 0.00 0.00 0.00 86 1019.4
20230131055858 2 176 0.0 0.0 0.00 0.00 0.00 86 1019.4
20230131055722 2 171 0.0 0.0 0.00 0.00 0.00 86 1019.4
20230131055238 2 138 0.0 0.0 0.00 0.00 0.00 86 1019.4
20230131054607 2 163 0.0 0.0 0.00 0.00 0.00 87 1019.4
20230131053921 2 158 0.0 0.0 0.00 0.00 0.00 87 1019.4
20230131053514 2 160 0.0 0.0 0.00 0.00 0.00 87 1019.8
20230131053158 2 153 0.0 0.0 0.00 0.00 0.00 87 1019.4
20230131052539 2 163 0.0 0.0 0.00 0.00 0.00 87 1019.4
20230131052418 2 170 0.0 0.0 0.00 0.00 0.00 87 1019.4
20230131052031 2 176 0.0 0.0 0.00 0.00 0.00 86 1019.4
20230131051530 3 170 0.0 0.0 0.00 0.00 0.00 86 1019.4
20230131051359 3 168 0.0 0.0 0.00 0.00 0.00 86 1019.4
20230131050943 3 157 0.0 0.0 0.00 0.00 0.00 86 1019.0
20230131050322 3 162 0.0 0.0 0.00 0.00 0.00 86 1019.4
20230131050100 4 166 0.0 0.0 0.00 0.00 0.00 85 1019.4
20230131045233 4 166 0.0 0.0 0.00 0.00 0.00 85 1019.0
20230131044924 4 159 0.0 0.0 0.00 0.00 0.00 85 1019.4
20230131044416 4 166 0.0 0.0 0.00 0.00 0.00 84 1019.0
20230131044115 4 163 0.0 0.0 0.00 0.00 0.00 84 1019.0
20230131044019 4 162 0.0 0.0 0.00 0.00 0.00 84 1019.0
20230131043124 4 147 0.0 0.0 0.00 0.00 0.00 84 1019.0
20230131042953 4 135 0.0 0.0 0.00 0.00 0.00 83 1019.0
20230131042454 4 140 0.0 0.0 0.00 0.00 0.00 83 1019.4
20230131042216 4 146 0.0 0.0 0.00 0.00 0.00 83 1019.4
20230131041822 4 155 0.0 0.0 0.00 0.00 0.00 83 1019.0
20230131041333 4 149 0.0 0.0 0.00 0.00 0.00 83 1019.0
20230131040813 4 155 0.0 0.0 0.00 0.00 0.00 83 1019.0
20230131040644 4 154 0.0 0.0 0.00 0.00 0.00 83 1019.0
20230131040158 4 162 0.0 0.0 0.00 0.00 0.00 82 1019.4
20230131035619 4 159 0.0 0.0 0.00 0.00 0.00 82 1019.4
20230131035208 4 153 0.0 0.0 0.00 0.00 0.00 81 1019.0
20230131034434 4 160 0.0 0.0 0.00 0.00 0.00 82 1019.0
20230131033818 4 171 0.0 0.0 0.00 0.00 0.00 81 1019.0
20230131033311 3 180 0.0 0.0 0.00 0.00 0.00 81 1019.0
20230131032730 3 172 0.0 0.0 0.00 0.00 0.00 81 1019.0
20230131032112 3 173 0.0 0.0 0.00 0.00 0.00 80 1019.0
20230131031433 3 167 0.0 0.0 0.00 0.00 0.00 80 1019.0
20230131030931 3 172 0.0 0.0 0.00 0.00 0.00 80 1019.0
20230131030343 2 171 0.0 0.0 0.00 0.00 0.00 80 1019.0
20230131025910 2 170 0.0 0.0 0.00 0.00 0.00 79 1018.7
20230131025733 2 170 0.0 0.0 0.00 0.00 0.00 79 1019.0
20230131025208 2 171 0.0 0.0 0.00 0.00 0.00 78 1018.7
20230131024849 2 167 0.0 0.0 0.00 0.00 0.00 79 1019.0
20230131024542 2 166 0.0 0.0 0.00 0.00 0.00 79 1019.0
20230131023921 2 165 0.0 0.0 0.00 0.00 0.00 78 1019.0
20230131023750 2 162 0.0 0.0 0.00 0.00 0.00 78 1018.7
20230131023413 2 161 0.0 0.0 0.00 0.00 0.00 79 1018.7
20230131022744 1 145 0.0 0.0 0.00 0.00 0.00 79 1018.7
20230131022353 1 177 0.0 0.0 0.00 0.00 0.00 79 1019.0
20230131021701 1 180 0.0 0.0 0.00 0.00 0.00 79 1018.7
20230131021518 1 180 0.0 0.0 0.00 0.00 0.00 79 1018.7
20230131020859 1 179 0.0 0.0 0.00 0.00 0.00 80 1018.7
20230131020604 1 179 0.0 0.0 0.00 0.00 0.00 81 1018.7
20230131020230 1 177 0.0 0.0 0.00 0.00 0.00 81 1018.7
20230131015559 0 176 0.0 0.0 0.00 0.00 0.00 80 1018.7
20230131015018 1 177 0.0 0.0 0.00 0.00 0.00 80 1018.7
20230131014509 1 178 0.0 0.0 0.00 0.00 0.00 80 1018.7
20230131013930 1 178 0.0 0.0 0.00 0.00 0.00 79 1018.7
20230131013501 1 177 0.0 0.0 0.00 0.00 0.00 79 1018.7
20230131013300 1 176 0.0 0.0 0.00 0.00 0.00 78 1018.7
20230131013005 1 175 0.0 0.0 0.00 0.00 0.00 78 1018.7
20230131012314 1 175 0.0 0.0 0.00 0.00 0.00 78 1018.7
20230131012130 1 176 0.0 0.0 0.00 0.00 0.00 78 1018.7
20230131011539 1 162 0.0 0.0 0.00 0.00 0.00 78 1018.7
20230131011231 1 172 0.0 0.0 0.00 0.00 0.00 79 1018.2
20230131010921 1 174 0.0 0.0 0.00 0.00 0.00 79 1018.7
20230131010148 2 171 0.0 0.0 0.00 0.00 0.00 78 1018.7
20230131005551 2 171 0.0 0.0 0.00 0.00 0.00 77 1018.2
20230131005055 2 169 0.0 0.0 0.00 0.00 0.00 77 1018.2
20230131004906 2 167 0.0 0.0 0.00 0.00 0.00 76 1017.8
20230131004215 2 161 0.0 0.0 0.00 0.00 0.00 75 1018.2
20230131004049 3 156 0.0 0.0 0.00 0.00 0.00 75 1017.8
20230131003552 3 154 0.0 0.0 0.00 0.00 0.00 75 1017.8
20230131003042 3 161 0.0 0.0 0.00 0.00 0.00 74 1017.8
20230131002915 3 155 0.0 0.0 0.00 0.00 0.00 73 1017.8
20230131002433 3 133 0.0 0.0 0.00 0.00 0.00 73 1018.2
20230131001831 4 138 0.0 0.0 0.00 0.00 0.00 73 1017.8
20230131001243 4 153 0.0 0.0 0.00 0.00 0.00 72 1017.8
20230131000746 4 167 0.0 0.0 0.00 0.00 0.00 72 1017.4
20230131000621 4 167 0.0 0.0 0.00 0.00 0.00 72 1017.4
20230131000003 5 165 0.0 0.0 0.00 0.00 0.00 71 1017.8
20230130235644 5 161 0.0 2.0 0.00 0.00 0.00 71 1017.4
20230130235455 5 146 0.0 2.0 0.00 0.00 0.00 70 1017.4
20230130234821 5 135 0.0 0.0 0.00 0.00 0.00 70 1017.4
20230130234543 6 160 0.0 0.0 0.00 0.00 0.00 70 1017.0
20230130234316 6 151 0.0 0.0 0.00 0.00 0.00 70 1017.4
20230130233746 6 171 0.0 2.0 0.00 0.00 0.00 69 1017.4
20230130233619 6 171 0.0 2.0 0.00 0.00 0.00 69 1017.4
20230130233009 6 85 0.0 2.0 0.00 0.00 0.00 68 1017.4
20230130232431 6 140 0.0 0.0 0.00 0.00 0.00 68 1017.4
20230130231833 6 157 0.0 0.0 0.00 0.00 0.00 66 1017.0
20230130231346 6 150 0.0 0.0 0.00 0.00 0.00 66 1017.0
20230130231221 6 122 0.0 0.0 0.00 0.00 0.00 65 1017.4
20230130230445 6 184 0.0 0.0 0.00 0.00 0.00 66 1017.0
20230130230306 6 134 0.0 0.0 0.00 0.00 0.00 66 1016.7
20230130225913 6 143 0.0 0.0 0.00 0.00 0.00 66 1016.7
20230130225803 6 128 0.0 0.0 0.00 0.00 0.00 67 1016.7
20230130225405 6 128 0.0 0.0 0.00 0.00 0.00 67 1016.7
20230130224929 6 158 0.0 2.0 0.00 0.00 0.00 65 1016.7
20230130224114 6 121 0.0 2.0 0.00 0.00 0.00 66 1016.2
20230130223442 7 192 0.0 2.0 0.00 0.00 0.00 67 1015.8
20230130223115 7 80 0.0 2.0 0.00 0.00 0.00 66 1016.2
20230130222814 7 113 0.0 0.0 0.00 0.00 0.00 65 1016.2
20230130222130 7 133 0.0 2.0 0.00 0.00 0.00 65 1016.2
20230130222009 7 130 0.0 2.0 0.00 0.00 0.00 66 1015.8
20230130221813 7 297 0.0 0.0 0.00 0.00 0.00 64 1016.2
20230130220921 7 113 0.0 2.0 0.00 0.00 0.00 61 1016.2
20230130220302 7 80 1.0 5.0 0.00 0.00 0.00 63 1016.2
20230130220028 7 42 0.0 5.0 0.00 0.00 0.00 64 1016.2
20230130215900 7 42 0.0 5.0 0.00 0.00 0.00 64 1016.2
20230130215351 7 159 0.0 2.0 0.00 0.00 0.00 64 1016.2
20230130214714 7 79 1.0 2.0 0.00 0.00 0.00 65 1015.8
20230130214530 7 133 0.0 2.0 0.00 0.00 0.00 65 1015.8
20230130213942 7 107 0.0 0.0 0.00 0.00 0.00 65 1015.4
20230130213621 8 109 0.0 2.0 0.00 0.00 0.00 66 1015.4
20230130213321 8 135 0.0 2.0 0.00 0.00 0.00 66 1015.8
20230130212648 8 107 0.0 2.0 0.00 0.00 0.00 64 1015.4
20230130212531 9 167 0.0 2.0 0.00 0.00 0.00 65 1015.4
20230130212031 9 75 1.0 2.0 0.00 0.00 0.00 62 1015.4
20230130211522 9 197 0.0 2.0 0.00 0.00 0.00 62 1015.0